Temperature
12 12 12 12 12 12 12 12 12 12 12 12 12 12 12 12 12 12 12 12 12 12 12 12 12 13 13 13 13 13 13 13 13 13 13 13 13 13 13 13 13 13 13
12 12 12 12 12 12 12 12 12 12 12 12 12 12 12 12 12 12 12 12 12 12 12 12 12 12 12 12 12 12 12 13 13 13 13 13 13 12 13 13 12 12 12
11 11 11 11 11 11 11 11 11 11 12 11 12 11 11 11 11 11 11 11 11 11 11 11 12 12 12 12 12 12 12 12 12 12 12 12 12 12 12 12 12 12 12
11 11 11 11 11 11 11 11 11 11 11 11 11 11 11 11 11 11 11 11 11 11 11 11 11 11 11 11 11 11 11 11 12 12 12 12 12 12 12 12 12 12 12
11 10 10 10 10 10 10 10 11 11 11 11 11 11 10 10 10 10 10 10 10 10 10 10 10 10 11 11 11 11 11 11 11 11 11 11 11 11 11 12 12 12 12
10 10 10 10 10 10 10 10 10 10 10 10 10 10 10 10 9 9 9 10 10 10 10 10 10 10 10 10 10 10 10 10 10 10 10 11 11 11 11 11 11 11 11
10 9 9 9 9 9 9 9 9 9 10 10 10 9 9 9 9 9 9 9 9 9 9 9 9 9 9 9 9 10 10 10 10 10 10 10 10 10 10 11 11 11 11
9 9 9 9 9 9 9 9 9 9 9 9 8 8 8 8 8 8 8 8 8 8 8 8 8 8 8 9 9 9 9 9 9 9 9 9 9 9 10 10 10 10 10
9 9 9 9 8 8 8 8 8 8 8 8 7 7 7 6 7 7 7 7 7 7 7 7 7 7 7 7 8 8 8 8 8 8 8 9 9 9 9 9 9 10 10
9 8 8 8 8 8 8 8 8 7 7 7 7 6 6 5 5 6 6 6 6 6 6 6 6 6 6 7 7 7 7 7 8 8 8 8 8 8 8 9 9 9 9
8 8 8 8 8 7 7 7 7 7 7 6 6 6 5 5 4 4 5 6 6 6 5 5 5 5 5 6 6 6 6 6 7 7 7 7 7 7 8 8 8 8 8
8 8 7 7 7 7 7 7 6 6 6 6 5 5 5 4 4 3 3 4 4 5 4 4 4 4 5 5 5 5 5 6 6 6 6 6 6 7 7 7 7 8 8
7 7 7 7 6 6 6 6 6 6 5 5 5 4 4 4 3 3 3 3 3 4 4 4 4 4 4 4 4 4 5 5 5 5 5 5 6 6 7 7 7 7 7
7 6 6 6 6 6 6 6 5 5 5 5 4 4 4 3 3 3 2 2 2 2 3 3 3 3 3 3 3 4 4 4 4 4 5 5 5 5 6 6 6 6 6
6 6 6 5 5 5 5 5 5 5 4 4 4 3 3 3 2 2 2 2 1 1 1 2 2 2 2 2 3 3 3 3 4 4 4 4 4 4 5 5 5 5 5
6 5 5 5 5 5 5 4 4 4 4 4 3 3 3 2 2 2 1 1 1 0 0 1 1 1 1 1 2 2 2 2 3 3 3 3 3 3 3 4 4 4 5
5 5 5 5 4 4 4 4 4 4 3 3 3 3 2 2 2 1 1 1 0 0 -0 0 1 1 1 1 1 1 1 2 2 2 2 2 2 2 2 3 3 3 4
5 5 5 4 4 4 4 3 3 3 3 3 3 2 2 2 1 1 1 0 0 -0 -1 -0 0 0 0 0 0 1 1 1 1 1 1 1 2 2 2 2 2 3 3
5 4 4 4 4 3 3 3 3 3 3 2 2 2 2 1 1 1 0 0 -0 -1 -1 -1 -1 -0 -0 -0 -0 -0 0 0 0 0 1 1 1 1 1 1 1 2 2
4 4 4 4 3 3 3 3 2 2 2 2 2 1 1 1 1 0 -0 -0 -1 -1 -1 -1 -1 -1 -1 -1 -1 -1 -0 -0 -0 -0 -0 -0 -0 0 0 0 1 1 1
4 3 3 3 3 3 2 2 2 2 2 1 1 1 1 0 0 -0 -1 -1 -1 -1 -2 -2 -2 -2 -2 -2 -2 -2 -2 -1 -1 -1 -1 -1 -1 -0 -0 -0 -0 -0 0
4 3 3 3 3 2 2 2 1 1 1 1 1 0 0 -0 -0 -1 -1 -2 -2 -2 -2 -2 -3 -3 -3 -3 -3 -3 -3 -3 -2 -2 -2 -1 -1 -1 -1 -1 -1 -1 -1
3 3 3 2 2 2 2 1 1 1 1 0 0 -0 -0 -1 -1 -1 -2 -2 -2 -2 -3 -3 -3 -3 -3 -4 -4 -4 -4 -4 -4 -3 -3 -2 -2 -2 -2 -2 -1 -1 -1
3 3 2 2 2 2 1 1 1 0 0 -0 -0 -1 -1 -1 -1 -2 -2 -2 -2 -3 -3 -3 -3 -4 -4 -4 -4 -5 -5 -4 -4 -4 -4 -4 -3 -2 -2 -2 -2 -2 -2
2 2 2 2 1 1 1 0 -0 -0 -0 -1 -1 -1 -1 -2 -2 -2 -3 -3 -3 -3 -3 -4 -4 -4 -4 -5 -5 -5 -5 -5 -5 -4 -5 -5 -5 -4 -3 -2 -2 -3 -3
2 2 1 1 1 1 0 -0 -1 -1 -1 -1 -1 -1 -2 -2 -2 -3 -3 -3 -3 -3 -4 -4 -4 -4 -5 -5 -5 -5 -6 -6 -6 -6 -6 -6 -6 -6 -5 -4 -3 -3 -3
Wind_Speed
3 4 5 6 7 8 7 6 6 7 7 8 8 7 6 6 5 5 5 6 7 7 8 9 9 9 10 11 11 10 11 11 12 13 13 13 14 14 14 14 14 13 13
5 4 4 5 6 7 7 6 6 5 5 6 6 7 7 6 5 5 4 5 6 6 7 8 8 9 9 9 10 10 11 11 11 11 12 13 13 14 15 16 15 14 14
6 4 3 4 6 7 8 6 6 6 5 6 7 7 5 5 5 4 4 4 5 6 7 7 7 7 7 8 8 8 10 12 12 12 12 12 13 14 14 15 16 16 16
7 5 3 4 7 7 6 4 4 5 5 6 6 6 5 4 4 4 4 4 4 5 6 7 7 7 8 9 9 9 9 9 11 13 13 13 13 13 14 15 17 17 17
7 5 4 5 7 5 4 4 4 4 5 6 6 5 4 4 3 3 4 5 5 6 6 7 8 9 9 9 10 10 9 9 9 10 13 14 14 14 14 15 15 16 16
6 6 4 6 6 3 4 4 4 4 3 5 5 5 4 3 3 3 4 5 6 7 7 7 7 8 10 11 11 11 11 11 10 9 10 12 12 13 14 15 15 16 17
5 5 4 4 4 3 3 4 3 4 4 5 3 4 4 3 3 3 3 4 5 7 7 7 7 7 7 10 11 11 11 12 12 11 11 10 11 13 13 13 13 14 15
4 4 3 2 3 2 4 4 3 3 3 5 3 3 4 4 4 4 4 5 5 6 6 7 7 7 7 8 10 13 13 12 12 13 12 12 11 12 14 14 14 14 15
2 2 3 3 3 2 2 3 3 3 2 3 3 2 1 2 4 3 3 4 5 5 5 5 6 7 8 9 9 12 15 14 13 14 14 13 13 13 12 13 14 14 14
2 2 2 2 2 2 2 3 3 2 1 2 2 2 0 1 2 4 3 4 5 5 5 5 5 7 8 8 10 12 14 14 14 14 14 14 13 13 14 14 14 14 14
2 2 1 2 2 1 1 2 2 2 1 1 1 1 1 1 1 2 4 5 5 4 4 3 3 5 8 9 10 13 15 15 16 15 15 15 14 14 13 13 13 13 14
2 2 1 1 1 1 1 1 1 1 1 1 1 1 1 1 1 2 3 5 5 4 4 2 3 4 7 9 11 15 15 16 16 17 16 15 14 14 14 14 14 14 13
2 3 2 1 1 2 2 1 1 1 1 1 1 1 1 1 1 2 3 4 4 4 3 2 2 4 8 9 11 15 15 17 17 17 17 16 15 14 14 14 14 14 14
4 3 3 2 3 2 2 1 1 1 1 1 1 1 1 2 1 1 2 2 4 4 3 3 2 4 7 9 12 14 14 16 17 17 17 17 16 15 14 14 14 14 14
4 4 3 3 3 2 2 1 1 2 1 1 2 2 1 2 1 1 2 2 2 4 4 3 3 3 8 9 12 12 13 15 16 17 17 16 16 15 14 14 14 13 13
4 4 4 4 3 3 2 2 2 2 2 2 2 2 2 2 1 1 2 2 2 3 5 3 3 4 7 9 12 12 12 15 15 16 16 17 16 15 14 14 14 14 13
5 5 5 5 4 4 3 3 3 3 3 3 3 2 3 3 2 2 2 1 2 2 5 5 3 4 5 6 9 10 11 11 11 15 16 17 16 15 15 15 15 15 14
5 5 5 5 5 5 4 4 4 4 4 3 3 3 3 3 2 2 2 2 2 3 4 6 5 4 5 6 7 7 9 10 10 14 15 16 15 15 15 15 15 15 14
5 5 5 6 6 5 5 5 5 5 5 5 4 4 4 3 3 3 3 3 3 3 3 5 6 4 4 5 6 6 7 6 9 12 13 13 14 16 16 15 15 15 14
5 6 6 6 6 6 6 5 5 5 5 5 5 5 5 4 5 5 4 4 4 4 4 5 5 5 4 4 4 5 7 5 7 9 10 12 14 15 16 15 15 14 14
6 6 6 6 6 6 6 6 6 6 5 5 5 5 5 7 7 6 5 4 4 4 4 4 5 5 5 4 4 4 7 7 6 4 5 7 9 8 10 13 13 14 14
6 5 6 7 7 7 9 11 8 6 6 6 6 6 6 7 8 9 9 7 6 5 4 4 4 6 6 5 5 5 5 6 5 3 6 8 5 6 7 9 13 15 15
6 6 7 7 7 9 12 12 11 6 6 6 6 6 5 6 7 5 7 8 7 9 8 5 5 6 5 5 5 6 6 6 7 6 6 7 5 7 6 11 15 15 15
6 6 7 7 7 9 12 12 11 6 5 6 6 6 6 6 6 6 5 5 5 6 7 5 5 6 6 5 5 5 6 6 6 5 3 5 5 6 8 9 13 13 13
6 6 5 7 8 9 12 12 11 4 5 6 6 6 6 7 10 10 6 6 6 6 7 9 9 9 10 10 7 3 4 5 6 5 2 3 4 6 7 6 7 12 14
7 6 7 7 8 8 11 12 11 4 5 5 5 6 9 9 10 11 6 6 7 6 5 5 6 7 7 7 8 3 3 4 5 4 2 3 4 5 6 4 4 7 10
Wind_Direction
18 12 11 12 8 6 2 355 352 347 343 340 338 335 328 319 316 306 293 299 298 294 292 286 281 273 265 257 255 254 252 251 250 249 247 245 243 241 241 239 238 239 237
22 18 14 13 8 4 358 350 348 343 339 339 335 333 324 325 325 323 321 319 318 314 306 299 294 287 281 272 264 258 254 255 256 254 251 249 247 246 244 241 238 238 236
32 30 22 13 5 2 1 359 358 354 352 345 333 329 334 338 336 341 338 336 333 334 330 322 313 309 299 294 286 280 270 262 259 260 259 257 254 251 249 246 241 239 237
35 34 29 10 4 9 10 1 3 355 351 343 332 329 336 341 348 4 9 7 1 352 347 345 340 331 321 311 303 295 284 282 274 264 263 261 260 257 253 251 247 242 239
35 37 31 13 11 15 10 0 1 356 343 340 329 327 335 341 347 8 26 30 27 20 12 5 3 355 345 340 330 322 314 300 293 280 269 263 261 259 258 255 251 246 243
29 35 31 18 17 16 7 1 351 352 340 334 329 333 334 341 0 18 21 34 32 28 24 22 20 16 13 9 359 351 342 332 320 310 300 280 266 262 262 259 257 252 247
22 32 26 18 16 16 3 354 348 350 354 350 353 344 343 1 26 23 24 33 29 26 26 25 19 16 10 9 6 359 351 345 338 325 314 305 291 273 266 263 260 259 254
18 25 29 14 9 9 7 4 4 358 352 7 10 351 343 343 5 11 20 29 18 20 23 20 22 19 17 13 6 4 352 343 336 332 328 320 310 300 280 271 266 262 257
7 18 21 23 10 17 4 356 4 12 346 346 20 36 3 308 320 326 5 18 12 8 4 7 19 20 22 15 6 3 358 349 340 333 329 324 319 311 306 288 277 269 263
347 1 18 22 11 8 358 348 9 358 1 335 340 360 287 261 301 313 321 352 358 356 350 355 13 19 18 11 2 359 355 349 342 332 326 323 318 314 307 303 295 280 271
310 327 356 17 0 351 332 338 354 4 9 331 317 314 310 311 298 270 300 322 333 330 336 348 9 13 11 5 356 352 351 348 345 336 328 326 322 318 314 312 306 298 283
287 301 302 334 324 316 307 312 324 352 347 334 316 300 276 278 285 272 280 303 310 308 317 346 14 8 6 1 353 350 349 346 342 338 330 326 326 325 321 316 310 305 299
260 265 271 276 274 272 276 291 290 304 301 295 288 282 281 272 265 260 271 290 297 298 305 329 12 16 5 0 350 350 347 344 341 337 334 330 326 326 324 320 318 312 305
242 241 241 254 260 258 262 267 260 261 256 259 290 288 281 288 280 263 260 285 300 299 297 297 322 14 360 353 345 347 343 342 342 340 336 334 332 331 329 324 321 320 317
239 229 230 239 247 245 242 232 245 259 253 253 261 266 266 278 292 290 277 257 266 290 294 302 320 342 350 346 343 345 339 338 343 345 343 341 338 335 334 333 331 326 324
236 231 233 233 236 237 230 221 242 250 246 260 256 260 268 267 275 283 282 280 256 253 274 288 292 317 334 337 338 338 334 339 342 343 343 343 340 342 343 341 338 333 326
230 231 232 232 234 236 229 223 233 234 239 256 261 254 262 264 264 275 281 281 271 257 270 286 286 311 316 323 326 328 330 329 329 336 338 340 338 339 340 340 338 335 330
233 228 226 228 230 230 224 221 231 233 231 242 250 249 261 265 266 265 268 270 268 266 266 284 296 302 303 312 314 319 327 329 323 328 333 336 336 337 336 336 336 334 333
239 232 226 230 232 228 225 225 225 228 230 237 240 240 249 249 260 259 259 261 265 274 264 275 289 292 292 304 313 314 317 316 320 323 328 334 334 334 333 333 333 333 334
235 233 230 231 232 230 227 228 227 227 233 239 239 237 241 238 242 247 253 254 254 264 271 274 283 292 290 294 307 314 322 323 320 319 327 331 330 329 330 330 330 331 332
236 233 232 236 234 231 231 229 228 228 230 240 246 244 244 244 245 246 252 250 247 253 266 273 282 292 297 309 311 310 315 318 312 311 327 321 319 317 321 323 324 325 328
241 235 234 235 236 240 243 241 234 228 228 235 246 249 250 255 257 262 264 263 258 254 257 261 273 281 288 293 298 306 311 321 317 320 326 313 310 310 312 310 316 322 326
241 239 239 235 239 243 245 246 243 230 225 233 238 241 249 250 253 248 261 269 275 274 270 263 262 268 279 285 293 300 300 299 292 301 314 300 306 305 309 313 317 320 324
242 241 242 239 241 247 247 249 248 237 226 232 234 234 241 250 247 240 236 248 256 265 272 271 255 260 265 269 270 283 289 294 287 286 293 290 304 303 309 309 314 325 331
247 243 243 238 239 249 250 250 248 229 230 235 236 236 238 243 253 254 246 245 255 262 272 275 279 284 291 296 296 295 300 308 306 303 303 292 307 311 302 293 307 324 327
248 247 249 241 238 244 250 249 245 225 232 240 240 242 248 249 254 256 243 239 254 259 258 273 285 291 296 298 301 292 277 286 293 297 306 321 308 327 314 290 295 313 316
Height
1532 1531 1529 1528 1527 1526 1524 1523 1522 1521 1520 1519 1518 1517 1516 1516 1515 1515 1515 1515 1514 1514 1514 1514 1514 1514 1514 1514 1514 1515 1515 1515 1516 1516 1517 1517 1518 1518 1519 1519 1520 1520 1521
1531 1529 1528 1527 1525 1524 1523 1521 1520 1519 1518 1517 1516 1514 1514 1513 1512 1512 1511 1511 1511 1511 1511 1511 1511 1511 1510 1510 1510 1510 1511 1511 1511 1512 1512 1513 1513 1514 1515 1515 1516 1516 1517
1529 1528 1526 1525 1524 1522 1521 1520 1518 1517 1516 1514 1513 1512 1511 1510 1509 1509 1508 1508 1507 1507 1507 1507 1507 1507 1507 1506 1506 1506 1506 1507 1507 1507 1508 1508 1508 1509 1510 1511 1511 1512 1512
1528 1527 1525 1524 1522 1521 1519 1518 1516 1514 1513 1512 1510 1509 1508 1507 1506 1506 1505 1505 1504 1503 1503 1503 1502 1502 1502 1502 1502 1502 1501 1501 1502 1502 1503 1503 1504 1504 1505 1505 1506 1507 1508
1527 1525 1524 1522 1521 1519 1517 1516 1514 1512 1510 1509 1508 1507 1506 1505 1504 1503 1502 1502 1501 1501 1500 1499 1499 1498 1498 1498 1498 1497 1496 1497 1497 1497 1497 1498 1498 1499 1499 1500 1500 1501 1502
1525 1524 1523 1521 1519 1518 1516 1514 1512 1510 1509 1507 1505 1504 1503 1502 1501 1500 1499 1499 1498 1498 1497 1496 1495 1495 1494 1494 1493 1492 1492 1491 1492 1492 1492 1492 1493 1493 1494 1494 1495 1496 1496
1524 1522 1521 1520 1518 1516 1514 1512 1511 1509 1507 1505 1504 1502 1501 1500 1499 1498 1497 1496 1496 1495 1494 1493 1492 1491 1490 1490 1489 1489 1488 1488 1487 1487 1487 1487 1487 1488 1488 1489 1489 1490 1490
1522 1521 1519 1518 1516 1514 1513 1511 1509 1507 1505 1504 1502 1500 1499 1499 1497 1496 1495 1494 1493 1493 1491 1490 1489 1488 1487 1486 1485 1484 1484 1483 1483 1482 1482 1482 1482 1482 1482 1483 1483 1484 1484
1520 1519 1517 1516 1514 1513 1511 1509 1508 1506 1504 1503 1502 1501 1499 1497 1495 1494 1493 1492 1491 1490 1489 1487 1486 1484 1483 1482 1481 1480 1479 1479 1478 1477 1477 1477 1476 1476 1477 1477 1477 1477 1478
1518 1517 1515 1514 1512 1511 1509 1508 1506 1504 1503 1501 1500 1499 1499 1497 1496 1492 1491 1490 1489 1488 1486 1484 1483 1481 1480 1479 1478 1476 1475 1474 1473 1472 1472 1471 1470 1470 1470 1470 1470 1471 1471
1515 1514 1513 1511 1510 1508 1507 1505 1504 1502 1501 1499 1498 1497 1496 1495 1494 1492 1488 1487 1486 1485 1483 1482 1480 1478 1477 1475 1474 1472 1471 1470 1469 1467 1466 1466 1465 1464 1464 1464 1464 1464 1464
1512 1511 1510 1508 1507 1506 1505 1503 1501 1500 1498 1497 1496 1494 1493 1492 1491 1490 1487 1484 1482 1481 1480 1478 1477 1475 1473 1472 1470 1469 1467 1466 1464 1462 1461 1460 1459 1458 1457 1457 1458 1458 1458
1509 1508 1507 1506 1505 1503 1502 1500 1499 1497 1496 1494 1493 1492 1490 1489 1488 1487 1485 1482 1480 1478 1477 1475 1474 1472 1470 1468 1466 1464 1463 1461 1459 1457 1456 1454 1453 1452 1451 1451 1451 1451 1451
1506 1505 1504 1503 1502 1500 1499 1497 1496 1494 1493 1491 1490 1488 1487 1486 1485 1484 1483 1481 1478 1475 1473 1472 1470 1469 1467 1465 1462 1460 1458 1456 1454 1452 1450 1448 1447 1446 1446 1445 1445 1444 1444
1502 1501 1500 1499 1498 1497 1496 1494 1493 1491 1490 1488 1487 1485 1484 1483 1482 1480 1479 1478 1477 1474 1470 1469 1467 1465 1463 1461 1459 1456 1454 1452 1450 1448 1446 1444 1442 1441 1440 1439 1438 1438 1438
1499 1497 1496 1495 1494 1493 1492 1491 1489 1488 1486 1485 1484 1482 1480 1479 1478 1477 1476 1475 1473 1472 1469 1466 1464 1462 1460 1458 1455 1453 1450 1448 1446 1444 1441 1439 1437 1435 1434 1433 1432 1432 1432
1495 1493 1492 1491 1490 1489 1488 1487 1485 1484 1483 1481 1480 1479 1477 1476 1474 1473 1472 1471 1470 1468 1465 1462 1461 1459 1456 1454 1451 1449 1446 1444 1442 1440 1437 1435 1433 1431 1430 1428 1427 1426 1426
1490 1489 1488 1487 1486 1485 1484 1483 1481 1480 1479 1477 1476 1475 1473 1472 1471 1470 1468 1467 1466 1464 1462 1459 1457 1455 1452 1450 1447 1445 1442 1440 1438 1435 1433 1431 1429 1427 1425 1424 1422 1421 1420
1485 1484 1483 1482 1481 1480 1479 1478 1477 1476 1474 1473 1472 1470 1469 1468 1467 1466 1464 1463 1461 1460 1458 1456 1453 1451 1448 1446 1444 1441 1439 1436 1434 1431 1429 1427 1425 1423 1420 1419 1417 1416 1414
1480 1479 1478 1477 1476 1475 1474 1473 1472 1471 1470 1468 1467 1466 1465 1464 1462 1461 1460 1459 1457 1455 1454 1452 1449 1447 1445 1442 1440 1437 1434 1432 1429 1427 1425 1423 1421 1418 1416 1414 1412 1411 1409
1475 1474 1473 1472 1471 1470 1469 1468 1467 1466 1465 1463 1462 1461 1460 1459 1458 1457 1456 1454 1453 1451 1450 1448 1445 1443 1441 1438 1436 1433 1430 1427 1424 1422 1420 1418 1416 1413 1411 1409 1407 1406 1404
1470 1469 1467 1466 1465 1464 1463 1462 1461 1460 1459 1458 1457 1456 1455 1454 1453 1452 1451 1450 1449 1447 1445 1443 1441 1439 1437 1435 1432 1429 1426 1423 1419 1419 1415 1413 1412 1409 1406 1404 1403 1401 1399
1464 1463 1461 1460 1459 1458 1458 1457 1456 1455 1454 1453 1452 1451 1450 1449 1448 1447 1446 1445 1444 1443 1441 1440 1437 1435 1433 1431 1428 1426 1423 1420 1418 1415 1411 1407 1407 1404 1402 1400 1398 1396 1394
1458 1457 1455 1454 1453 1453 1452 1451 1450 1449 1448 1447 1447 1446 1445 1444 1443 1442 1441 1440 1439 1438 1436 1435 1433 1431 1429 1427 1425 1423 1420 1417 1414 1412 1409 1404 1401 1399 1397 1395 1394 1392 1390
1452 1451 1449 1448 1447 1447 1446 1446 1445 1443 1442 1441 1441 1440 1439 1439 1438 1437 1436 1434 1433 1432 1432 1430 1428 1427 1425 1423 1421 1419 1416 1413 1409 1407 1406 1402 1397 1394 1391 1390 1389 1387 1385
1446 1445 1443 1442 1441 1440 1440 1439 1439 1437 1436 1435 1435 1434 1434 1433 1433 1432 1431 1429 1428 1427 1426 1425 1424 1422 1420 1418 1417 1415 1412 1410 1406 1403 1401 1399 1395 1392 1386 1384 1384 1382 1380